Petersburg, AK

3:38 AM AKDT on July 26, 2017 (GMT -0800)
Johnson Petersburg

Weather History for PAPG - December, 2011

Change the Weather History Date:

Friday, December 9, 2011

  Actual Average Record
Temperature  
Mean Temperature 34 °F -  
Max Temperature 37 °F 35 °F 51 °F (2002)
Min Temperature 32 °F 28 °F 12 °F (2016)
Degree Days  
Heating Degree Days 30    
Moisture  
Dew Point 34 °F    
Average Humidity 94    
Maximum Humidity 100    
Minimum Humidity 87    
Precipitation  
Precipitation 0.00 in - - ()
Sea Level Pressure  
Sea Level Pressure 30.05 in    
Wind  
Wind Speed 2 mph (West)    
Max Wind Speed 6 mph    
Max Gust Speed -    
Visibility 6 miles    
Events      
Averages and records for this station are not official NWS values.
T = Trace of Precipitation, MM = Missing Value Source: NWS Daily Summary

Daily Weather History Graph

Daily Weather History Graph

Search for Another Location

Airport or City:

Trip Planner

Search our weather history database for the weather conditions in past years. The results will help you decide how hot, cold, wet, or windy it might be!

Date:

Astronomy

Dec. 09, 2011 Rise Set
Actual Time 8:15 AM AKST 3:12 PM AKST
Civil Twilight 7:27 AM AKST 4:00 PM AKST
Nautical Twilight 6:37 AM AKST 4:50 PM AKST
Astronomical Twilight 5:51 AM AKST 5:36 PM AKST
Moon 2:38 PM AKST (12/9) 7:32 AM AKST (12/9)
Length of Visible Light 8h 33m
Length of Day
6h 56m
Waxing Gibbous, 99% of the Moon is Illuminated
Dec 9
Waxing Gibbous
Dec 10
Full
Dec 17
Last Quarter
Dec 24
New
Dec 31
First Quarter

Hourly Weather History & Observations

Time (AKST) Temp. Windchill Dew Point Humidity Pressure Visibility Wind Dir Wind Speed Gust Speed Precip Events Conditions
12:16 AM 35.6 °F 32.8 °F 35.6 °F 100% 30.24 in 7.0 mi WSW 3.5 mph - N/A   Mostly Cloudy
12:36 AM 35.6 °F - 35.6 °F 100% 30.23 in 8.0 mi Calm Calm - N/A   Overcast
12:56 AM 35.6 °F 31.7 °F 33.8 °F 93% 30.23 in 4.0 mi West 4.6 mph - N/A   Mostly Cloudy
1:16 AM 37.4 °F - 35.6 °F 93% 30.22 in 7.0 mi Calm Calm - N/A   Overcast
1:36 AM 35.6 °F - 35.6 °F 100% 30.22 in 5.0 mi Calm Calm - N/A   Overcast
1:56 AM 35.6 °F 32.8 °F 33.8 °F 93% 30.20 in 10.0 mi NW 3.5 mph - N/A   Overcast
2:16 AM 35.6 °F 32.8 °F 33.8 °F 93% 30.20 in 10.0 mi WNW 3.5 mph - N/A   Overcast
2:36 AM 35.6 °F - 35.6 °F 100% 30.19 in 10.0 mi Calm Calm - N/A   Overcast
2:56 AM 35.6 °F 32.8 °F 35.6 °F 100% 30.17 in 10.0 mi West 3.5 mph - N/A   Overcast
3:16 AM 35.6 °F - 33.8 °F 93% 30.16 in 6.0 mi Calm Calm - N/A   Overcast
3:36 AM 35.6 °F - 35.6 °F 100% 30.16 in 10.0 mi Calm Calm - N/A   Overcast
3:56 AM 35.6 °F - 35.6 °F 100% 30.15 in 7.0 mi Calm Calm - N/A   Overcast
4:16 AM 35.6 °F 32.8 °F 33.8 °F 93% 30.14 in 9.0 mi West 3.5 mph - N/A   Overcast
4:36 AM 35.6 °F - 35.6 °F 100% 30.14 in 7.0 mi Calm Calm - N/A   Overcast
4:56 AM 35.6 °F - 33.8 °F 93% 30.13 in 5.0 mi Calm Calm - N/A   Overcast
5:16 AM 35.6 °F - 33.8 °F 93% 30.12 in 4.0 mi Calm Calm - N/A   Mostly Cloudy
5:36 AM 37.4 °F - 35.6 °F 93% 30.11 in 4.0 mi Calm Calm - N/A   Mostly Cloudy
5:56 AM 35.6 °F 32.8 °F 33.8 °F 93% 30.11 in 7.0 mi WSW 3.5 mph - N/A   Overcast
6:16 AM 35.6 °F - 35.6 °F 100% 30.11 in 7.0 mi Calm Calm - N/A   Overcast
6:36 AM 35.6 °F - 33.8 °F 93% 30.10 in 7.0 mi Calm Calm - N/A   Overcast
6:56 AM 37.4 °F - 35.6 °F 93% 30.09 in 7.0 mi Calm Calm - N/A   Overcast
7:16 AM 35.6 °F - 35.6 °F 100% 30.09 in 7.0 mi Calm Calm - N/A   Overcast
7:36 AM 35.6 °F - 33.8 °F 93% 30.09 in 7.0 mi Calm Calm - N/A   Overcast
8:16 AM 35.6 °F - 35.6 °F 100% 30.08 in 3.0 mi Calm Calm - N/A   Overcast
8:36 AM 35.6 °F 32.8 °F 33.8 °F 93% 30.08 in 3.0 mi NNW 3.5 mph - N/A   Overcast
8:56 AM 35.6 °F - 35.6 °F 100% 30.07 in 4.0 mi Calm Calm - N/A   Overcast
9:16 AM 35.6 °F 32.8 °F 33.8 °F 93% 30.07 in 4.0 mi SSW 3.5 mph - N/A   Overcast
9:36 AM 35.6 °F - 33.8 °F 93% 30.06 in 4.0 mi Calm Calm - N/A   Overcast
9:56 AM 35.6 °F - 33.8 °F 93% 30.06 in 5.0 mi Calm Calm - N/A   Overcast
10:16 AM 35.6 °F 31.7 °F 33.8 °F 93% 30.05 in 5.0 mi West 4.6 mph - N/A   Overcast
10:36 AM 35.6 °F - 33.8 °F 93% 30.05 in 5.0 mi Calm Calm - N/A   Overcast
10:56 AM 35.6 °F - 33.8 °F 93% 30.03 in 5.0 mi Calm Calm - N/A   Overcast
11:16 AM 35.6 °F - 33.8 °F 93% 30.03 in 5.0 mi Calm Calm - N/A   Overcast
11:36 AM 35.6 °F 32.8 °F 33.8 °F 93% 30.01 in 5.0 mi West 3.5 mph - N/A   Overcast
11:56 AM 35.6 °F 31.7 °F 33.8 °F 93% 30.01 in 5.0 mi WSW 4.6 mph - N/A   Overcast
12:16 PM 35.6 °F 30.7 °F 33.8 °F 93% 30.00 in 5.0 mi WSW 5.8 mph - N/A   Overcast
12:36 PM 35.6 °F 30.7 °F 33.8 °F 93% 29.99 in 5.0 mi WSW 5.8 mph - N/A   Overcast
12:56 PM 33.8 °F 29.6 °F 32.0 °F 93% 29.98 in 7.0 mi West 4.6 mph - N/A   Overcast
1:16 PM 35.6 °F 31.7 °F 32.0 °F 87% 29.97 in 7.0 mi WSW 4.6 mph - N/A   Overcast
1:36 PM 35.6 °F 32.8 °F 33.8 °F 93% 29.96 in 7.0 mi WSW 3.5 mph - N/A   Overcast
1:56 PM 33.8 °F 30.8 °F 33.8 °F 100% 29.95 in 7.0 mi WSW 3.5 mph - N/A   Overcast
2:16 PM 33.8 °F 30.8 °F 32.0 °F 93% 29.94 in 7.0 mi WSW 3.5 mph - N/A   Overcast
2:36 PM 33.8 °F 29.6 °F 32.0 °F 93% 29.94 in 7.0 mi West 4.6 mph - N/A   Overcast
2:56 PM 33.8 °F 29.6 °F 32.0 °F 93% 29.93 in 7.0 mi WSW 4.6 mph - N/A   Overcast
3:16 PM 33.8 °F 29.6 °F 32.0 °F 93% 29.92 in 7.0 mi WSW 4.6 mph - N/A   Overcast
3:36 PM 33.8 °F 30.8 °F 32.0 °F 93% 29.92 in 7.0 mi WSW 3.5 mph - N/A   Overcast
3:56 PM 33.8 °F 30.8 °F 30.2 °F 87% 29.91 in 7.0 mi West 3.5 mph - N/A   Overcast
4:16 PM 33.8 °F 30.8 °F 30.2 °F 87% 29.91 in 7.0 mi West 3.5 mph - N/A   Overcast
4:36 PM 32.0 °F 28.7 °F 30.2 °F 93% 29.90 in 7.0 mi West 3.5 mph - N/A   Overcast
4:56 PM 32.0 °F - 30.2 °F 93% 29.89 in 7.0 mi Calm Calm - N/A   Overcast
5:16 PM 33.8 °F 30.8 °F 30.2 °F 87% 29.89 in 7.0 mi West 3.5 mph - N/A   Overcast
5:36 PM 33.8 °F 29.6 °F 30.2 °F 87% 29.88 in 7.0 mi West 4.6 mph - N/A   Overcast
5:56 PM 32.0 °F 28.7 °F 30.2 °F 93% 29.88 in 7.0 mi West 3.5 mph - N/A   Overcast
6:16 PM 32.0 °F 28.7 °F 30.2 °F 93% 29.87 in 7.0 mi West 3.5 mph - N/A   Overcast
6:36 PM 33.8 °F - 30.2 °F 87% 29.87 in 7.0 mi Calm Calm - N/A   Overcast
6:56 PM 32.0 °F - 30.2 °F 93% 29.87 in 5.0 mi Calm Calm - N/A   Overcast
7:16 PM 32.0 °F 28.7 °F 30.2 °F 93% 29.86 in 5.0 mi West 3.5 mph - N/A   Overcast
7:36 PM 32.0 °F - 30.2 °F 93% 29.86 in 5.0 mi Calm Calm - N/A   Overcast
7:56 PM 32.0 °F - 30.2 °F 93% 29.86 in 7.0 mi Calm Calm - N/A   Overcast
8:16 PM 32.0 °F - 30.2 °F 93% 29.86 in 7.0 mi Calm Calm - N/A   Overcast
8:36 PM 32.0 °F 27.5 °F 30.2 °F 93% 29.86 in 7.0 mi West 4.6 mph - N/A   Overcast
8:56 PM 32.0 °F 28.7 °F 30.2 °F 93% 29.85 in 7.0 mi WSW 3.5 mph - N/A   Overcast
9:16 PM 32.0 °F 27.5 °F 30.2 °F 93% 29.86 in 7.0 mi WSW 4.6 mph - N/A   Overcast
9:36 PM 32.0 °F 27.5 °F 30.2 °F 93% 29.86 in 7.0 mi SW 4.6 mph - N/A   Overcast
9:56 PM 32.0 °F 26.4 °F 30.2 °F 93% 29.86 in 7.0 mi SW 5.8 mph - N/A   Overcast
10:16 PM 32.0 °F - 30.2 °F 93% 29.86 in 5.0 mi Calm Calm - N/A   Overcast
10:36 PM 32.0 °F - 30.2 °F 93% 29.87 in 5.0 mi Calm Calm - N/A   Overcast
10:56 PM 32.0 °F - 30.2 °F 93% 29.87 in 8.0 mi Calm Calm - N/A   Overcast
11:16 PM 32.0 °F - 30.2 °F 93% 29.87 in 10.0 mi Calm Calm - N/A   Overcast
11:36 PM 32.0 °F - 30.2 °F 93% 29.87 in 10.0 mi Calm Calm - N/A   Overcast
11:56 PM 32.0 °F - 30.2 °F 93% 29.88 in 10.0 mi Calm Calm - N/A   Overcast